Location: Killam
(52.7910°N, 111.8608°W)
Time: 16:13:50
(UTC+00:00)

Vanguard 2 Rocket - Pass Details

Date: 23 February 2026
Orbit: 553 x 3286 km, 32.9° (Epoch: 11 March)

Event Time Altitude Azimuth Distance (km) Brightness Sun altitude
Rises 20:54:13 0° 252° (WSW) 7,261 12.0 25.7°
Reaches altitude 10° 20:59:52 10° 245° (WSW) 6,180 11.9 25.4°
Maximum altitude 21:15:42 35° 190° (S) 3,794 11.9 24.4°
Drops below altitude 10° 21:27:10 10° 131° (SE) 4,481 10.7 23.6°
Sets 21:30:29 0° 123° (ESE) 5,126 10.8 23.4°
